Regional Weather Roundup
Issued by NWS Bismarck, ND

Home | Current Version | Previous Version | Text Only | Print | Product List | Glossary On
Versions: 1 2 3 4 5 6 7 8 9 10 11 12 13 14 15 16 17 18 19 20 21 22 23 24 25 26 27 28 29 30 31 32 33 34 35 36 37 38 39 40 41 42 43 44 45 46 47 48 49 50
363
ASUS43 KBIS 141902
RWRBIS

NWR BROADCAST TEXT
NATIONAL WEATHER SERVICE BISMARCK ND
100 PM CST SUN FEB 14 2016

NOTE: "FAIR" INDICATES FEW OR NO CLOUDS BELOW 12,000 FEET WITH NO
SIGNIFICANT WEATHER AND/OR OBSTRUCTIONS TO VISIBILITY.


CITY           SKY/WX    TMP DP  RH WIND       PRES   REMARKS
WILLISTON      PTSUNNY   34  27  75 SW7       29.72S
MINOT          CLOUDY    34  26  72 W14       29.68S
MINOT AFB      NOT AVBL
BISMARCK       CLOUDY    40  29  64 NW3       29.72F
DICKINSON      PTSUNNY   37  28  70 W17       29.69F
GARRISON         N/A     35  28  75 NW10      29.69F
HETTINGER ARPT CLOUDY    39  31  72 W20G25    29.74S
JAMESTOWN      CLOUDY    27  22  81 NW10      29.69F WCI  17
CARRINGTON     CLOUDY    25  25 100 W14       29.71S WCI  13
OAKES          CLOUDY    18  16  93 SW14      29.75F WCI   4
$$

CITY           SKY/WX    TMP DP  RH WIND       PRES   REMARKS
GRAND FORKS    LGT SNOW  17  13  84 S18       29.75F VSB 1   WCI   1
GRAND FORKS AF CLOUDY    17  12  82 S15       29.73F HAZE    WCI   2
DEVILS LAKE    CLOUDY    21  17  84 W12       29.68F WCI   9
FARGO          LGT SNOW  17  12  80 S20       29.79F WCI   1
GWINNER        CLOUDY    21  18  86 S15       29.76F WCI   8
$$

CITY           SKY/WX    TMP DP  RH WIND       PRES   REMARKS
ABERDEEN       CLOUDY    22  16  78 SW14      29.78S WCI   9
MOBRIDGE       CLOUDY    37  30  75 W8        29.72S
BUFFALO          N/A     38  32  79 W22       29.71S
RAPID CITY     CLOUDY    43  25  49 N14       29.79S
GLASGOW        CLOUDY    41  30  65 W6        29.71S
SIDNEY         CLOUDY    39  27  60 W8        29.73F
WOLF POINT     CLOUDY    40  31  70 SW6       29.72F
GLENDIVE       CLOUDY    39  32  75 W20       29.78R
MILES CITY     CLOUDY    43  33  68 W17G23    29.78S
$$

CITY           SKY/WX    TMP DP  RH WIND       PRES   REMARKS
BILLINGS       PTSUNNY   48  17  29 NW31G51   29.82S
GREAT FALLS    SUNNY     49  21  33 W30G40    29.85R
$$





USA.gov is the U.S. government's official web portal to all federal, state and local government web resources and services.